Regional Weather Roundup
Issued by NWS

Home | Current Version | Previous Version | Text Only | Print | Product List | Glossary Off
Versions: 1 2 3 4 5 6 7 8 9 10 11 12 13 14 15 16 17 18 19 20 21 22 23 24 25 26 27

000
ASUS45 KTFX 300910
RWRMT
MONTANA REGIONAL WEATHER ROUNDUP
NATIONAL WEATHER SERVICE GREAT FALLS MT
300 AM MDT MON MAY 30 2016

NOTE: "FAIR" INDICATES FEW OR NO CLOUDS BELOW 12000 FEET WITH NO
SIGNIFICANT WEATHER AND/OR OBSTRUCTIONS TO VISIBILITY.

MTZ001>007-043-301000-
WEST OF THE DIVIDE

CITY           SKY/WX    TMP DP  RH WIND       PRES   REMARKS
KALISPELL      MOCLDY    47  42  83 NE5       30.04R
MISSOULA       CLOUDY    49  44  83 CALM      30.06R
BUTTE          CLOUDY    40  36  86 CALM      30.08S
MULLAN PASS    PTCLDY    38  33  82 NW8       30.09S
ANACONDA         N/A     48  37  66 NW5       30.07S
DEER LODGE       N/A     46  43  87 W5        30.07S
EUREKA           N/A     46  45  93 CALM      30.06R
HAMILTON         N/A     48  45  87 CALM      30.07R
LIBBY            N/A     43  39  87 CALM      30.07R
$$

MTZ008-052>055-301000-
SOUTHWEST MONTANA

CITY           SKY/WX    TMP DP  RH WIND       PRES   REMARKS
BOZEMAN        CLOUDY    52  41  66 W5        30.02R
DILLON         CLOUDY    48  37  65 S8        30.06R
W YELLOWSTONE  CLOUDY    46  37  71 W5        30.10R
ENNIS          CLOUDY    46  39  76 SE3       30.10R
$$

MTZ009-010-012-014-046-048-049-054-301000-
EAST SLOPES AND CENTRAL MONTANA

CITY           SKY/WX    TMP DP  RH WIND       PRES   REMARKS
CUT BANK       MOCLDY    43  40  89 N15       29.97F
GREAT FALLS    CLOUDY    48  42  80 SW9       29.97S
MALMSTROM AFB  PTCLDY    50  44  79 SW12      29.97R
HELENA         PTCLDY    53  41  63 CALM      30.02R
CHOTEAU          N/A     50  39  66 NW8G15    29.99R
$$

MTZ011-013-016-021-045-047-050-051-301000-
NORTH CENTRAL MONTANA

CITY           SKY/WX    TMP DP  RH WIND       PRES   REMARKS
HAVRE          CLOUDY    51  46  83 W8        29.90F
LEWISTOWN      LGT RAIN  52  47  83 SE9       30.01S
N BAR RANCH    LGT RAIN  48  45  87 NW9       30.02S
CHINOOK          N/A     50  45  81 NW3       29.90F
$$

MTZ017>020-022>027-061-062-301000-
NORTHEAST MONTANA

CITY           SKY/WX    TMP DP  RH WIND       PRES   REMARKS
GLASGOW        CLOUDY    55  44  66 SE5       29.88R
JORDAN           N/A     58  44  60 E6        29.91F
SIDNEY         PTCLDY    47  41  80 CALM      29.90S
WOLF POINT     CLOUDY    48  43  82 E5        29.89F
POPLAR           N/A     46  43  87 CALM      29.90S
$$

MTZ028>42-056>058-301000-
SOUTHCENTRAL AND SOUTHEAST MONTANA

CITY           SKY/WX    TMP DP  RH WIND       PRES   REMARKS
BAKER          CLOUDY    51  45  79 SE9       29.91F
BILLINGS       CLOUDY    56  46  69 NW9       29.96R
LIVINGSTON     MOCLDY    52  40  63 NW8       30.01S
MILES CITY     CLOUDY    60  48  64 NW8       29.88S
FORSYTH          N/A     55  52  88 NW18G30   29.93R
$$

REGIONAL REPORTS...DAKOTAS

CITY           SKY/WX    TMP DP  RH WIND       PRES   REMARKS
WILLISTON      PTCLDY    48  42  80 N5        29.90F
MINOT          CLEAR     57  45  64 SW7       29.89F
DICKINSON      CLEAR     49  45  86 S8        29.90F
BEACH          MOCLDY    48  45  87 SW3       29.95S
CROSBY           N/A     50  50 100 S9        29.91F
WATFORD CITY     N/A     45  43  93 SW3       29.91F
BISMARCK       CLEAR     53  51  93 E3        29.92F
GRAND FORKS    CLEAR     51  45  79 SW5       29.91S
FARGO          MOCLDY    58  47  66 S6        29.93S
BUFFALO SD       N/A     54  48  80 SE3       29.86F
RAPID CITY     CLOUDY    51  49  92 VRB3      29.94S
$$

REGIONAL REPORTS...WYOMING/IDAHO/WASHINGTON

CITY           SKY/WX    TMP DP  RH WIND       PRES   REMARKS
GILLETTE       CLEAR     52  41  66 S12       29.90F
SHERIDAN       CLOUDY    54  44  69 CALM      29.88F
BUFFALO WY     PTCLDY    65  34  31 VRB6G17   29.93F
CODY           CLOUDY    57  37  47 W10       29.98R
YELLOWSTONE LA   N/A     38  36  92 CALM      30.18S
IDAHO FALLS    CLOUDY    53  42  66 S12       30.05R
SALMON         CLEAR     52  37  58 E5        30.05R
BOISE          CLEAR     58  40  51 W9        30.05R
SPOKANE        PTCLDY    46  35  65 W7        30.11R
$$

REGIONAL REPORTS...ALBERTA

CITY           SKY/WX    TMP DP  RH WIND       PRES   REMARKS
EDMONTON       PTCLDY    46  41  81 NW7       30.01R
CALGARY        RAIN      43  39  87 N17G24    30.04R
LETHBRIDGE     MOCLDY    45  41  87 NW20G25   29.99F
MEDICINE HAT   MOCLDY    50  45  81 SW12G17   29.90R
WATERTON GATE    N/A     41  39  93 NE7         N/A
CARDSTON         N/A     43  39  87 N6          N/A
MILK RIVER       N/A     45  43  93 NW24G32     N/A
$$

REGIONAL REPORTS...SASKATCHEWAN

CITY           SKY/WX    TMP DP  RH WIND       PRES   REMARKS
SWIFT CURRENT  MOCLDY    50  43  76 SW10      29.85F
REGINA         CLEAR     46  43  87 E6        29.87S
SASKATOON      CLEAR     46  46 100 NE10      29.91S
CYPRESS HILLS    N/A     45  36  70 NW3         N/A
VAL MARIE        N/A     46  41  81 E2          N/A
ROCKGLEN         N/A     46  39  76 S7          N/A
ASSINIBOIA       N/A     48  48 100 NW10        N/A
$$




USA.gov is the U.S. government's official web portal to all federal, state and local government web resources and services.